Retour au catalogue

FENGYUN 1C DEB

ActifSSO
NORAD 31080·DEBRIS·🇨🇳 China

Lancé May 10, 1999 depuis Taiyuan Satellite Launch Center

Loading…

Prochains Passages (prochaines 24 heures)

TLE

VieillissantSource: Space-Track

Époque: Sep 9, 2026, 05:12 UTC

1 31080U 99025BGA 26252.21710589  .00001812  00000-0  76443-3 0  9996
2 31080  99.1168  48.3740 0067280  40.6550 319.9624 14.25769786668062

Suivez FENGYUN 1C DEB en temps réel avec AllMySat

Download on the App Store